| time (UTC) | temp F | wind direction | speed knots | gust knots | rain 1hr in | rain 24hr in | rain mn in | humidity % | barometer mb |
| 20260901104501 | 76 | 290 | 1.7 | 7.0 | 0.00 | 0.01 | 0.01 | 80 | 1010.2 |
| 20260901103100 | 76 | 319 | 0.9 | 6.1 | 0.00 | 0.01 | 0.01 | 82 | 1010.3 |
| 20260901101559 | 76 | 315 | 2.6 | 6.1 | 0.00 | 0.01 | 0.01 | 81 | 1010.3 |
| 20260901100100 | 76 | 300 | 1.7 | 5.2 | 0.00 | 0.01 | 0.01 | 82 | 1010.2 |
| 20260901094558 | 75 | 324 | 1.7 | 7.0 | 0.00 | 0.01 | 0.01 | 83 | 1010.3 |
| 20260901093059 | 75 | 320 | 0.0 | 7.0 | 0.00 | 0.01 | 0.01 | 84 | 1010.3 |
| 20260901091604 | 75 | 282 | 1.7 | 5.2 | 0.00 | 0.01 | 0.01 | 84 | 1010.4 |
| 20260901090100 | 75 | 319 | 2.6 | 7.8 | 0.00 | 0.01 | 0.01 | 84 | 1010.4 |
| 20260901084554 | 75 | 307 | 3.5 | 6.1 | 0.00 | 0.01 | 0.01 | 83 | 1010.4 |
| 20260901083054 | 75 | 286 | 3.5 | 7.8 | 0.00 | 0.01 | 0.01 | 83 | 1010.4 |
| 20260901081555 | 75 | 296 | 3.5 | 8.7 | 0.00 | 0.01 | 0.01 | 80 | 1010.4 |
| 20260901080108 | 76 | 307 | 1.7 | 5.2 | 0.00 | 0.01 | 0.01 | 77 | 1010.5 |
| 20260901074551 | 76 | 294 | 1.7 | 7.0 | 0.00 | 0.01 | 0.01 | 75 | 1010.5 |
| 20260901073049 | 76 | 303 | 0.0 | 3.5 | 0.00 | 0.01 | 0.01 | 72 | 1010.5 |
| 20260901071552 | 76 | 269 | 0.0 | 3.5 | 0.00 | 0.01 | 0.01 | 69 | 1010.5 |
| 20260901070057 | 75 | 228 | 0.0 | 3.5 | 0.00 | 0.01 | 0.01 | 68 | 1010.5 |
| 20260901064603 | 75 | 302 | 0.9 | 4.3 | 0.00 | 0.01 | 0.01 | 65 | 1010.4 |
| 20260901063053 | 75 | 308 | 0.9 | 3.5 | 0.00 | 0.01 | 0.01 | 64 | 1010.4 |
| 20260901061541 | 74 | 18 | 0.0 | 3.5 | 0.00 | 0.01 | 0.01 | 65 | 1010.3 |
| 20260901060041 | 73 | 309 | 0.0 | 5.2 | 0.00 | 0.01 | 0.01 | 65 | 1010.2 |
| 20260901054534 | 71 | 310 | 0.0 | 2.6 | 0.00 | 0.01 | 0.01 | 68 | 1010.0 |
| 20260901053030 | 70 | 332 | 0.0 | 3.5 | 0.00 | 0.01 | 0.01 | 73 | 1009.9 |
| 20260901051526 | 69 | 31 | 0.0 | 1.7 | 0.00 | 0.01 | 0.01 | 80 | 1009.8 |
| 20260901050022 | 67 | 26 | 0.0 | 0.9 | 0.00 | 0.01 | 0.01 | 87 | 1009.7 |
| 20260901044520 | 67 | 27 | 0.0 | 1.7 | 0.00 | 0.01 | 0.01 | 93 | 1009.7 |
| 20260901043019 | 66 | 28 | 0.0 | 0.0 | 0.00 | 0.01 | 0.01 | 95 | 1009.8 |
| 20260901041519 | 64 | 28 | 0.0 | 0.0 | 0.00 | 0.01 | 0.01 | 95 | 1009.6 |
| 20260901040018 | 64 | 28 | 0.0 | 0.0 | 0.00 | 0.01 | 0.01 | 95 | 1009.5 |
| 20260901034516 | 64 | 28 | 0.0 | 0.0 | 0.00 | 0.01 | 0.01 | 96 | 1009.3 |
| 20260901033029 | 65 | 28 | 0.0 | 0.9 | 0.00 | 0.01 | 0.01 | 96 | 1009.3 |
| 20260901031521 | 65 | 28 | 0.0 | 0.0 | 0.00 | 0.01 | 0.01 | 96 | 1009.3 |
| 20260901030013 | 65 | 28 | 0.0 | 0.0 | 0.00 | 0.01 | 0.01 | 96 | 1009.2 |
| 20260901024513 | 65 | 28 | 0.0 | 0.0 | 0.00 | 0.01 | 0.01 | 96 | 1009.2 |
| 20260901023011 | 65 | 28 | 0.0 | 0.0 | 0.00 | 0.01 | 0.01 | 96 | 1009.2 |
| 20260901021514 | 65 | 28 | 0.0 | 0.0 | 0.00 | 0.01 | 0.01 | 96 | 1009.2 |
| 20260901020009 | 65 | 28 | 0.0 | 1.7 | 0.00 | 0.01 | 0.01 | 96 | 1009.1 |
| 20260901014509 | 66 | 15 | 0.0 | 0.0 | 0.00 | 0.01 | 0.01 | 95 | 1009.1 |
| 20260901013008 | 66 | 16 | 0.0 | 0.9 | 0.00 | 0.01 | 0.01 | 96 | 1009.2 |
| 20260901011511 | 66 | 16 | 0.0 | 1.7 | 0.00 | 0.01 | 0.01 | 95 | 1009.2 |
| 20260901010015 | 66 | 18 | 0.0 | 0.9 | 0.01 | 0.01 | 0.01 | 96 | 1009.2 |
| 20260901004503 | 66 | 356 | 0.0 | 1.7 | 0.01 | 0.01 | 0.01 | 96 | 1009.3 |
| 20260901003003 | 66 | 12 | 0.0 | 1.7 | 0.01 | 0.01 | 0.01 | 95 | 1009.4 |
| 20260901001503 | 66 | 348 | 0.0 | 1.7 | 0.01 | 0.01 | 0.01 | 96 | 1009.4 |
| 20260901000001 | 65 | 292 | 0.0 | 0.9 | 0.00 | 0.00 | 0.00 | 95 | 1009.6 |
| 20260831234601 | 65 | 290 | 0.0 | 0.0 | 0.00 | 0.00 | 0.00 | 95 | 1009.5 |
| 20260831233059 | 65 | 290 | 0.0 | 0.0 | 0.00 | 0.00 | 0.00 | 95 | 1009.4 |
| 20260831231612 | 66 | 290 | 0.0 | 0.0 | 0.00 | 0.00 | 0.00 | 95 | 1009.4 |
| 20260831230058 | 66 | 290 | 0.0 | 0.0 | 0.00 | 0.00 | 0.00 | 95 | 1009.5 |
| 20260831224556 | 66 | 290 | 0.0 | 0.0 | 0.00 | 0.00 | 0.00 | 95 | 1009.6 |
| 20260831223101 | 66 | 290 | 0.0 | 0.0 | 0.00 | 0.00 | 0.00 | 95 | 1009.7 |
| 20260831221553 | 66 | 290 | 0.0 | 0.0 | 0.00 | 0.00 | 0.00 | 94 | 1009.7 |
| 20260831220053 | 67 | 290 | 0.0 | 0.9 | 0.00 | 0.00 | 0.00 | 95 | 1009.8 |
| 20260831214550 | 67 | 290 | 0.0 | 0.0 | 0.00 | 0.00 | 0.00 | 95 | 1009.9 |
| 20260831213050 | 66 | 290 | 0.0 | 0.0 | 0.00 | 0.00 | 0.00 | 95 | 1009.8 |
| 20260831211600 | 66 | 290 | 0.0 | 0.0 | 0.00 | 0.00 | 0.00 | 94 | 1009.9 |
| 20260831210046 | 67 | 290 | 0.0 | 0.0 | 0.00 | 0.00 | 0.00 | 94 | 1010.0 |
| 20260831204546 | 67 | 290 | 0.0 | 0.0 | 0.00 | 0.00 | 0.00 | 94 | 1010.0 |
| 20260831203045 | 67 | 290 | 0.0 | 0.0 | 0.00 | 0.00 | 0.00 | 94 | 1010.2 |
| 20260831201555 | 67 | 290 | 0.0 | 0.0 | 0.00 | 0.00 | 0.00 | 94 | 1010.0 |
| 20260831200045 | 67 | 290 | 0.0 | 0.0 | 0.00 | 0.00 | 0.00 | 94 | 1010.1 |
| 20260831194628 | 67 | 290 | 0.0 | 0.0 | 0.00 | 0.00 | 0.00 | 93 | 1010.0 |
| 20260831193044 | 68 | 290 | 0.0 | 0.0 | 0.00 | 0.00 | 0.00 | 94 | 1010.1 |
| 20260831191542 | 68 | 290 | 0.0 | 0.9 | 0.00 | 0.00 | 0.00 | 93 | 1010.2 |
| 20260831190047 | 68 | 290 | 0.0 | 0.0 | 0.00 | 0.00 | 0.00 | 93 | 1010.2 |
| 20260831184552 | 68 | 290 | 0.0 | 0.0 | 0.00 | 0.00 | 0.00 | 93 | 1010.2 |
| 20260831183042 | 69 | 290 | 0.0 | 0.0 | 0.00 | 0.00 | 0.00 | 93 | 1010.2 |
| 20260831181547 | 69 | 290 | 0.0 | 0.0 | 0.00 | 0.00 | 0.00 | 93 | 1010.2 |
| 20260831180039 | 69 | 290 | 0.0 | 0.9 | 0.00 | 0.00 | 0.00 | 92 | 1010.3 |
| 20260831174543 | 69 | 290 | 0.0 | 0.0 | 0.00 | 0.00 | 0.00 | 92 | 1010.2 |
| 20260831173038 | 69 | 290 | 0.0 | 0.9 | 0.00 | 0.00 | 0.00 | 92 | 1010.1 |
| 20260831171544 | 69 | 290 | 0.0 | 0.0 | 0.00 | 0.00 | 0.00 | 91 | 1010.0 |
| 20260831170036 | 70 | 290 | 0.0 | 0.9 | 0.00 | 0.00 | 0.00 | 91 | 1009.9 |
| 20260831164536 | 70 | 290 | 0.0 | 1.7 | 0.00 | 0.00 | 0.00 | 91 | 1009.8 |
| 20260831163039 | 70 | 289 | 0.0 | 0.9 | 0.00 | 0.00 | 0.00 | 90 | 1009.8 |
| 20260831161535 | 70 | 289 | 0.0 | 0.9 | 0.00 | 0.00 | 0.00 | 89 | 1009.7 |
| 20260831160037 | 71 | 288 | 0.0 | 1.7 | 0.00 | 0.00 | 0.00 | 88 | 1009.5 |
| 20260831154537 | 71 | 267 | 0.0 | 2.6 | 0.00 | 0.00 | 0.00 | 87 | 1009.6 |
| 20260831153037 | 72 | 222 | 0.0 | 2.6 | 0.00 | 0.00 | 0.00 | 85 | 1009.5 |
| 20260831151531 | 73 | 286 | 0.0 | 2.6 | 0.00 | 0.00 | 0.00 | 83 | 1009.5 |
| 20260831150030 | 74 | 280 | 1.7 | 4.3 | 0.00 | 0.00 | 0.00 | 79 | 1009.4 |
| 20260831144528 | 75 | 298 | 0.9 | 5.2 | 0.00 | 0.00 | 0.00 | 78 | 1009.4 |
| 20260831143027 | 75 | 309 | 0.9 | 5.2 | 0.00 | 0.00 | 0.00 | 76 | 1009.4 |
| 20260831141526 | 75 | 267 | 0.9 | 5.2 | 0.00 | 0.00 | 0.00 | 76 | 1009.4 |
| 20260831140025 | 75 | 290 | 0.9 | 4.3 | 0.00 | 0.00 | 0.00 | 77 | 1009.4 |
| 20260831134623 | 75 | 293 | 2.6 | 7.8 | 0.00 | 0.00 | 0.00 | 76 | 1009.3 |
| 20260831133022 | 75 | 301 | 0.9 | 6.1 | 0.00 | 0.00 | 0.00 | 76 | 1009.3 |
| 20260831131522 | 75 | 325 | 0.9 | 9.6 | 0.00 | 0.00 | 0.00 | 74 | 1009.3 |
| 20260831130023 | 75 | 308 | 2.6 | 10.4 | 0.00 | 0.00 | 0.00 | 75 | 1009.3 |
| 20260831124520 | 75 | 302 | 2.6 | 9.6 | 0.00 | 0.00 | 0.00 | 75 | 1009.3 |
| 20260831123018 | 75 | 301 | 3.5 | 9.6 | 0.00 | 0.00 | 0.00 | 74 | 1009.4 |
| 20260831121520 | 76 | 319 | 1.7 | 7.8 | 0.00 | 0.00 | 0.00 | 73 | 1009.4 |
| 20260831120018 | 76 | 309 | 1.7 | 9.6 | 0.00 | 0.00 | 0.00 | 71 | 1009.4 |
| 20260831114522 | 75 | 224 | 1.7 | 8.7 | 0.00 | 0.00 | 0.00 | 70 | 1009.4 |
| 20260831113015 | 76 | 233 | 3.5 | 8.7 | 0.00 | 0.00 | 0.00 | 67 | 1009.4 |
| 20260831111513 | 76 | 271 | 1.7 | 6.1 | 0.00 | 0.00 | 0.00 | 69 | 1009.6 |
| 20260831110017 | 75 | 264 | 2.6 | 9.6 | 0.00 | 0.00 | 0.00 | 69 | 1009.5 |